Theta_e
303 302 302 302 303 303 304 303 303 302 302 295 291 291 287 286 284 294 299 302 298 290 283 285 283 281 284 287 286 288 286 285 287 286 289 287 290 288 286 286 285 286 285 288 284 286 283 284 282 283 281 282 285 284 286 285 288 289 283 285 286 298 281 281 278 280 284 287 288 289 289 289 286 287 288 286 284 283 281 277 277 281 279 280 278 278 280
302 303 302 302 302 303 303 303 302 302 301 295 292 286 284 285 285 289 299 301 297 287 278 278 280 282 284 285 285 289 287 287 286 287 289 287 287 286 286 287 288 286 292 291 288 289 278 285 285 285 286 286 290 285 284 288 286 287 284 285 292 280 279 278 274 277 280 282 286 287 288 288 283 282 285 287 287 286 284 282 280 280 281 282 278 275 280
303 303 303 302 302 302 303 303 302 302 302 299 291 286 287 286 289 289 293 297 293 283 285 281 280 282 282 283 283 284 287 289 289 289 287 290 289 287 286 288 289 288 291 291 291 292 285 282 286 287 287 288 294 291 286 288 287 289 291 299 292 283 279 280 272 271 271 271 273 274 278 283 284 288 284 286 287 285 284 280 280 278 280 281 280 275 284
303 303 302 302 302 302 302 302 302 302 302 301 291 291 287 285 278 287 289 292 291 289 291 287 284 282 283 282 284 286 284 289 291 290 289 291 290 290 289 290 289 287 287 289 290 289 290 286 284 285 285 287 291 294 292 289 288 296 303 299 291 282 282 282 276 272 274 275 277 282 285 285 282 286 285 286 286 288 286 282 279 280 278 280 280 285 292
302 302 302 302 302 302 302 302 302 301 301 301 295 292 288 288 282 283 281 288 288 286 289 287 288 283 287 281 285 284 286 288 289 293 287 293 291 290 289 288 285 286 287 287 287 288 287 288 287 286 287 288 291 293 293 294 296 301 301 298 287 282 282 282 283 283 282 282 286 288 288 286 287 287 287 288 285 287 286 282 281 282 282 278 280 291 294
302 302 302 302 302 302 302 302 302 302 302 303 296 287 290 282 285 285 287 282 281 282 284 288 286 287 287 285 287 284 284 285 283 290 292 292 294 288 288 291 290 288 288 288 283 284 286 284 282 287 289 288 290 290 293 291 298 301 295 293 288 283 280 283 286 288 291 291 290 291 289 288 287 287 286 286 285 285 285 283 281 285 283 282 284 293 293
301 302 301 301 302 302 302 303 302 302 302 302 293 287 291 289 287 286 290 282 286 286 287 287 287 286 287 285 287 284 284 284 287 288 288 291 290 293 282 287 290 289 290 288 285 286 281 281 285 286 286 287 288 286 287 292 292 293 289 289 285 284 280 284 288 289 291 291 290 289 289 287 286 287 288 287 286 285 284 283 284 285 282 283 291 294 293
301 302 301 301 302 302 302 302 302 302 302 299 293 292 286 284 283 284 288 286 285 287 287 287 286 284 288 283 286 286 286 285 288 291 289 286 288 293 288 289 290 289 289 288 286 287 286 287 283 287 287 286 287 286 286 288 291 290 288 289 289 285 280 290 286 286 288 290 290 289 288 286 286 288 289 289 287 287 286 286 288 291 292 292 294 294 294
301 301 301 301 302 302 302 302 301 301 302 294 292 291 294 291 292 290 284 282 285 287 287 286 285 283 286 284 286 287 287 287 291 289 293 290 289 292 289 290 289 287 287 286 288 291 290 290 291 291 289 286 291 288 288 291 288 289 289 288 289 286 283 283 283 284 284 289 288 287 286 285 284 284 288 288 288 287 288 287 287 288 290 294 293 291 292
301 301 301 301 302 302 302 302 302 301 302 295 293 288 295 294 296 295 288 282 288 286 289 289 287 282 286 287 288 288 289 291 291 286 291 293 293 294 293 290 287 284 286 286 290 293 293 293 294 294 293 293 294 293 293 293 290 287 287 287 286 286 286 282 281 283 280 287 287 286 284 285 284 282 287 289 288 288 288 288 290 292 296 291 288 290 299
301 301 301 301 301 302 302 302 302 302 299 294 292 291 292 290 288 290 290 283 285 287 286 287 285 288 289 291 289 291 290 291 291 286 286 292 292 294 294 291 287 284 285 290 296 297 298 298 297 295 294 294 295 294 294 295 294 291 288 284 285 289 289 281 282 282 281 286 285 287 283 277 276 284 289 291 291 292 292 290 290 292 292 289 290 294 303
301 301 301 301 301 302 302 302 302 302 301 298 297 293 295 295 293 291 287 282 283 288 286 284 286 287 288 290 290 288 288 289 290 293 289 291 293 294 294 291 288 283 289 294 298 298 298 297 297 295 293 292 293 294 294 293 293 293 290 287 285 287 284 281 283 284 282 282 284 283 278 277 283 289 292 293 295 296 295 295 295 294 291 293 296 300 302
301 301 301 302 302 302 302 302 302 302 302 299 297 293 296 298 293 290 288 285 283 285 284 285 288 289 290 289 289 290 291 292 292 292 292 291 292 293 292 290 288 290 298 298 295 292 290 287 287 289 289 288 288 290 292 292 293 293 291 288 289 285 285 279 280 279 281 280 280 276 275 283 287 290 294 298 298 297 296 293 295 292 292 293 297 301 303
301 301 302 302 302 302 303 303 302 302 302 301 297 296 297 297 291 289 288 284 284 287 288 286 288 288 288 288 288 290 292 292 294 294 290 295 294 294 295 294 294 297 299 296 291 289 286 282 282 283 286 284 284 285 289 289 291 290 289 288 289 289 284 284 280 280 279 277 275 276 282 285 287 291 293 294 290 293 287 284 287 292 294 298 299 301 302
301 302 302 302 302 303 302 303 303 303 303 302 299 297 297 297 295 292 292 290 284 286 288 283 286 287 288 288 289 288 289 290 291 291 296 298 296 299 299 300 300 298 295 294 286 286 283 282 281 279 279 279 276 280 283 285 287 290 288 288 288 286 287 284 284 278 278 279 276 277 274 274 279 287 291 295 295 292 289 287 285 292 296 300 302 301 301
301 302 302 302 302 302 303 303 303 303 302 303 300 298 297 298 298 296 293 289 286 282 287 290 291 289 287 288 289 288 287 287 289 291 291 294 296 299 301 303 302 301 296 288 284 282 282 284 277 274 273 276 280 282 280 283 285 289 288 289 289 288 286 283 285 279 277 276 276 273 273 275 282 285 290 293 293 294 292 287 285 289 295 301 303 301 301
301 302 302 302 302 302 302 303 303 303 302 303 298 297 295 299 297 294 292 292 289 284 292 293 292 291 287 287 290 289 289 286 291 286 286 288 293 296 299 304 302 301 299 290 286 284 284 280 280 277 277 282 281 277 285 283 282 283 288 288 287 285 278 279 282 278 275 275 274 274 274 278 288 286 290 294 293 292 290 281 281 289 297 302 303 301 300
301 301 301 301 301 301 301 302 302 303 302 303 299 295 295 298 299 298 294 290 285 286 291 294 291 287 285 289 286 290 294 293 293 293 289 292 292 293 294 299 297 303 303 289 288 284 282 277 277 276 277 283 284 282 276 281 281 279 283 283 282 280 280 280 281 278 275 277 272 273 277 282 286 288 292 295 294 292 284 279 282 289 299 302 303 302 302
301 300 300 300 300 301 301 301 301 302 303 302 300 296 295 298 299 299 292 288 286 283 291 296 296 292 294 297 293 294 294 293 293 287 287 286 290 295 295 298 300 289 298 287 287 283 283 283 283 280 279 280 285 282 285 281 279 284 282 279 281 278 276 279 277 278 279 273 278 278 275 283 288 291 293 294 290 284 284 287 290 295 298 300 303 302 303
299 300 300 300 300 300 300 300 301 301 301 303 301 294 295 298 300 298 291 286 286 285 288 290 293 291 296 293 292 291 292 293 293 289 286 285 293 294 291 288 292 294 289 289 284 286 283 283 282 282 279 280 282 285 282 283 288 284 284 283 277 279 278 278 279 277 275 269 273 273 275 283 292 294 292 294 285 284 287 291 293 296 299 301 302 303 303
299 299 299 299 300 300 300 301 300 301 301 301 301 296 294 298 299 300 299 294 287 284 287 297 296 295 297 296 297 296 294 290 292 291 293 292 294 291 284 284 288 289 286 286 284 284 285 284 283 280 283 283 284 285 282 280 284 289 289 284 283 283 279 276 275 279 275 271 274 278 284 288 289 291 286 288 288 292 291 293 293 297 299 300 301 301 300
298 298 298 299 299 300 300 300 301 301 301 301 300 297 293 296 298 299 300 298 289 285 289 295 297 295 296 298 298 298 298 297 297 298 294 290 292 291 290 291 292 291 292 288 284 283 283 282 283 281 280 283 283 281 282 279 278 283 288 286 282 285 283 282 281 282 276 276 278 286 291 289 291 291 290 290 292 292 293 294 296 298 299 300 300 297 298
298 298 298 299 299 299 299 299 300 300 301 302 300 296 293 295 296 299 298 292 294 294 295 294 295 295 297 297 298 299 299 300 300 299 298 293 287 289 290 290 290 294 294 290 288 283 284 282 280 281 281 282 283 280 282 279 278 283 281 288 286 291 290 288 288 286 291 292 291 292 289 288 289 289 289 289 290 291 292 294 297 296 298 300 299 297 298
298 298 298 298 299 299 299 299 300 300 301 302 301 296 295 296 297 297 295 293 289 286 290 294 291 288 293 295 299 301 300 299 299 300 301 299 288 287 290 293 294 295 293 293 291 290 285 282 284 283 280 283 285 280 279 280 277 283 281 283 283 289 290 286 284 289 286 281 289 290 290 291 288 289 290 290 290 290 291 292 293 295 297 297 297 298 298
297 297 298 298 298 299 299 299 300 300 300 301 301 300 299 297 297 296 291 285 285 285 283 286 287 294 297 300 301 300 301 302 303 301 300 299 297 292 290 295 297 293 293 293 291 289 285 284 285 284 284 288 288 281 283 281 282 285 280 282 283 286 289 285 287 287 282 282 288 291 291 290 289 288 288 289 290 291 292 292 294 295 297 298 298 299 298
297 297 297 298 298 298 299 299 300 300 300 301 301 298 296 295 298 298 296 293 291 288 283 284 289 297 299 298 297 299 301 300 301 300 299 299 299 299 297 297 296 296 293 291 290 285 284 283 281 282 286 286 290 283 282 286 285 285 284 282 286 285 288 281 287 285 289 291 291 291 291 290 289 290 289 290 290 291 292 294 296 297 297 297 298 298 298
297 297 297 298 298 299 299 299 300 300 300 301 300 299 298 298 300 297 294 292 287 284 285 284 289 294 297 294 298 299 300 298 300 299 298 299 299 298 297 295 294 293 290 287 286 284 284 283 283 284 285 286 287 285 285 285 285 282 284 287 289 286 285 288 288 285 285 285 287 291 286 285 285 288 290 291 292 292 292 294 296 297 296 297 296 296 297
297 297 297 298 298 299 299 299 300 300 300 301 300 299 299 297 299 300 299 295 290 285 285 286 287 292 297 292 297 298 299 296 298 298 297 297 297 296 294 293 292 290 286 285 287 285 282 284 284 282 282 284 283 283 282 283 284 284 284 286 288 286 287 285 283 284 284 288 292 290 288 287 288 289 291 293 293 293 292 293 294 296 297 297 296 295 295
297 297 298 298 299 299 299 300 300 300 300 300 299 298 297 299 300 301 300 299 295 291 288 288 292 290 285 293 297 297 297 294 294 293 293 293 293 292 291 291 289 286 285 284 283 283 281 282 281 283 284 287 283 280 281 281 282 282 285 290 288 287 287 288 288 288 288 289 290 289 288 287 288 290 291 293 294 294 292 292 293 295 296 297 297 297 295
297 297 298 298 299 299 299 299 300 300 300 299 297 294 288 295 299 299 299 298 295 295 287 286 283 285 291 293 293 295 295 293 292 292 292 292 292 292 291 290 289 289 287 285 283 282 282 282 277 280 286 286 284 278 278 282 283 284 289 288 287 286 286 288 289 290 289 290 290 290 290 289 289 290 291 293 294 294 292 292 292 293 295 297 296 296 297
297 297 298 298 299 299 299 299 300 300 300 297 294 284 285 286 294 300 300 297 296 294 288 288 286 289 288 292 292 293 293 293 291 289 289 288 288 289 289 289 288 288 284 283 282 282 279 280 278 283 284 288 278 274 279 281 283 284 287 288 287 286 286 287 288 291 292 291 292 293 292 291 290 291 291 292 292 293 294 294 295 296 296 296 296 296 296
297 298 298 298 299 299 299 300 300 300 299 296 293 290 293 294 295 297 300 298 297 293 287 284 284 284 281 287 292 293 292 292 290 288 287 289 290 287 288 290 288 288 287 281 281 280 281 279 280 282 282 287 283 278 280 282 282 284 289 289 289 287 287 289 290 290 292 293 293 291 290 289 288 288 289 290 292 293 294 293 293 294 295 295 295 296 296
297 298 298 298 299 299 299 300 300 300 297 299 302 303 302 303 302 302 302 297 295 288 290 286 283 283 280 286 290 290 294 291 289 283 287 287 290 285 285 286 285 287 294 286 282 281 281 276 277 279 283 281 277 277 283 282 285 289 289 289 288 288 288 289 289 288 289 290 291 289 287 287 286 286 289 291 292 293 293 293 294 295 295 294 294 294 295
297 298 298 298 299 299 300 300 300 300 301 298 294 295 297 302 301 302 301 299 295 289 285 285 284 284 284 288 286 289 290 286 285 282 283 288 285 284 283 282 285 283 287 284 281 280 281 281 279 277 278 278 277 278 281 285 289 288 288 288 287 286 288 288 288 288 289 290 290 290 289 287 288 289 291 292 292 293 294 294 294 293 293 293 293 294 294
298 298 298 298 299 299 299 300 299 298 295 294 293 296 297 303 303 303 301 297 287 284 285 286 287 284 282 279 274 282 288 287 285 282 281 286 285 287 283 282 280 282 285 284 279 277 277 282 282 278 278 277 274 278 282 286 288 288 288 288 288 288 289 288 287 286 287 289 290 289 290 290 290 289 289 291 292 292 292 292 293 293 292 292 293 293 294
297 298 298 298 299 299 298 300 298 294 290 289 292 300 303 303 303 300 299 295 293 284 283 284 281 280 278 276 276 282 288 286 283 283 283 281 283 284 279 277 278 282 283 279 280 275 278 284 281 277 274 273 273 279 281 285 287 287 288 290 290 290 289 286 286 287 288 288 290 290 289 289 288 288 289 291 292 292 292 291 292 292 291 291 292 292 293
297 298 298 298 298 297 292 291 297 296 294 297 299 302 302 301 299 298 295 293 294 297 288 281 280 280 281 278 277 281 284 281 281 280 280 281 280 278 277 276 278 281 275 274 274 277 281 284 278 274 275 275 275 279 281 283 286 286 285 288 289 289 289 288 289 289 288 288 288 288 288 287 287 287 288 289 291 291 291 290 291 291 290 290 291 292 293
297 297 291 291 293 290 289 291 294 297 299 299 300 297 294 292 285 288 286 283 285 295 285 285 279 281 281 282 280 284 286 280 280 282 280 278 279 279 277 280 279 281 276 274 276 283 275 277 278 277 277 280 280 281 282 285 287 285 284 285 285 288 290 290 291 291 288 287 286 286 286 287 287 286 288 289 290 290 290 291 291 291 292 291 291 292 292
294 289 287 287 289 287 288 293 296 298 296 297 295 290 287 284 284 285 285 286 288 287 282 283 283 281 281 281 283 286 287 284 277 277 280 281 281 278 278 277 277 276 273 271 278 283 275 271 273 276 276 278 281 283 285 286 288 288 288 287 287 287 289 289 291 292 291 290 289 289 289 287 287 285 287 288 288 288 288 290 290 291 291 291 291 292 292
287 285 282 282 283 287 293 294 296 294 295 290 286 286 285 284 282 283 284 284 284 283 282 282 284 283 285 286 282 281 284 284 281 278 276 278 283 280 278 276 276 276 272 269 276 276 274 270 270 276 276 277 280 281 285 287 288 288 288 288 290 290 288 288 287 288 290 292 293 291 291 291 291 290 288 288 288 287 287 288 290 291 291 291 291 292 292
284 284 283 281 286 288 290 292 293 292 289 288 286 283 281 282 284 284 282 279 278 280 284 285 282 282 284 283 283 280 284 287 282 280 276 278 281 280 275 275 277 275 271 271 273 274 272 274 275 276 276 277 280 282 283 285 286 287 287 289 290 290 289 289 288 290 292 292 291 291 292 292 291 289 289 289 289 288 287 287 289 290 290 291 291 291 292
287 287 288 290 290 291 291 291 288 288 287 286 284 281 282 282 283 283 281 280 278 276 281 285 281 282 282 285 283 283 283 287 282 277 278 278 282 278 275 274 274 272 271 273 274 269 269 272 270 272 278 280 280 282 286 285 284 286 287 287 287 288 290 290 291 290 291 290 289 290 292 292 291 289 288 289 290 289 288 288 288 289 290 291 292 292 292
296 294 291 287 286 287 287 287 287 286 283 282 278 279 280 280 281 281 279 278 278 282 284 287 285 286 286 286 285 284 283 285 286 281 279 280 279 275 273 272 273 271 274 275 272 269 269 269 268 273 278 280 281 284 285 286 285 284 284 285 287 288 289 290 291 292 292 292 291 291 292 292 291 290 290 291 290 290 290 290 289 289 289 290 291 292 292
291 292 289 285 285 286 286 284 287 285 281 279 278 277 278 278 278 276 276 279 281 280 282 284 283 284 283 282 284 280 281 285 282 276 278 276 276 274 273 273 274 275 276 272 271 273 269 266 274 278 278 279 282 283 285 285 285 285 285 286 288 289 289 289 291 292 292 292 292 293 293 292 291 291 292 291 291 290 290 291 291 290 289 289 290 291 292
283 283 282 283 283 286 285 280 284 280 277 279 280 279 278 278 278 275 281 279 282 284 284 283 284 284 284 284 282 282 281 281 281 279 278 277 275 274 274 275 272 270 272 271 267 267 269 272 277 278 279 281 284 284 285 286 286 287 286 286 287 287 287 288 289 290 291 291 291 292 292 292 291 291 291 291 292 292 291 291 291 291 291 291 290 290 291
283 282 280 279 279 283 282 278 279 279 280 281 282 281 281 280 278 280 281 281 282 284 285 285 283 283 281 281 282 282 277 277 279 278 276 273 273 274 275 275 274 273 270 266 268 268 270 276 277 280 283 284 284 285 285 286 286 287 288 287 286 286 286 287 286 289 290 290 291 292 292 292 291 291 290 290 291 291 292 292 292 292 292 291 290 290 291
284 282 279 278 277 278 282 279 278 280 284 284 283 281 282 283 282 283 284 283 284 285 285 284 284 284 283 280 281 280 276 275 278 277 277 278 276 276 275 276 273 268 269 268 265 264 271 276 277 279 283 284 285 285 286 286 287 287 287 286 285 285 285 286 287 288 289 291 292 292 292 292 291 292 291 291 290 291 291 292 292 292 292 290 290 290 290
282 283 278 273 272 275 278 278 282 283 283 283 284 283 284 282 281 283 286 285 285 285 285 284 282 280 282 281 282 278 278 275 278 277 277 277 276 272 268 269 267 266 268 271 268 271 276 278 278 279 283 285 286 286 286 286 286 286 286 285 285 285 285 286 286 287 288 289 291 292 292 291 291 291 291 291 290 290 291 291 292 292 291 291 291 290 291
285 284 281 280 279 277 276 278 282 282 283 282 282 282 283 283 282 284 286 285 284 285 286 285 279 280 280 279 278 280 280 278 276 275 276 273 273 270 269 269 266 269 269 272 276 277 277 278 279 282 284 286 286 287 286 287 287 286 286 285 285 285 286 286 286 286 287 288 289 290 291 291 291 291 291 290 289 288 290 291 291 291 291 291 290 290 290
283 282 284 281 278 275 279 280 280 281 281 282 282 282 283 281 282 284 286 285 286 285 283 283 282 283 281 280 277 274 276 275 276 277 273 272 268 269 269 268 266 271 271 274 275 278 279 282 284 284 284 285 285 286 286 286 286 286 286 286 286 286 286 286 286 286 287 288 288 289 290 290 289 289 289 288 288 287 288 289 290 290 290 290 290 290 290
283 281 279 280 278 275 279 274 274 276 280 280 280 280 282 282 282 284 285 285 285 282 280 280 277 277 278 274 274 275 277 278 277 275 273 273 271 270 271 271 270 272 276 278 279 280 282 284 285 285 285 285 285 286 286 286 286 286 286 287 286 286 286 286 286 286 286 288 288 286 289 290 290 290 290 289 288 287 287 288 289 290 290 290 290 291 290
282 279 278 277 278 279 279 279 279 279 280 281 281 281 282 281 283 285 286 284 282 281 279 277 278 277 273 276 275 277 279 275 273 273 274 273 272 272 269 271 277 278 279 280 280 281 282 284 284 286 286 286 285 286 286 286 286 286 286 286 286 286 285 286 286 286 286 286 287 288 289 289 290 290 290 289 288 287 286 286 287 289 290 290 291 291 291
Wind_Speed
18 19 19 19 18 18 18 19 18 17 14 4 3 2 2 1 5 0 1 1 7 4 2 1 2 3 3 4 5 4 3 3 3 4 2 3 5 4 7 6 2 4 4 1 1 1 1 2 2 4 4 3 8 5 10 7 11 10 2 3 3 4 1 2 3 4 4 4 3 2 3 6 4 5 3 7 7 6 7 6 7 7 2 1 0 1 2
18 18 19 19 18 17 17 18 19 17 14 2 2 2 1 3 4 3 0 3 1 3 3 3 3 3 4 2 5 1 3 4 5 4 3 2 3 4 5 5 6 4 0 1 1 1 1 2 1 0 1 1 5 7 8 11 5 8 7 7 4 3 2 6 1 1 2 3 3 2 1 2 3 5 4 8 7 6 3 4 1 5 7 8 6 3 1
16 17 18 18 18 18 17 18 18 17 15 4 1 3 4 4 3 3 2 3 2 3 0 1 3 6 4 3 5 3 3 5 8 6 4 6 8 4 5 7 3 4 2 2 0 2 3 1 2 0 1 2 1 3 9 8 6 4 7 6 7 3 3 4 3 5 6 7 8 6 4 8 2 0 5 7 12 6 5 5 2 5 2 4 3 3 4
16 17 17 18 18 18 17 17 17 17 15 8 2 3 3 2 4 0 1 2 3 2 1 1 1 3 3 3 4 3 4 2 6 8 9 10 10 10 11 12 8 8 4 1 1 1 0 3 2 1 1 1 2 3 2 9 8 10 12 9 8 3 1 4 6 5 6 3 2 2 4 3 3 1 5 6 5 10 7 6 5 8 3 6 5 6 6
17 17 18 18 18 17 17 17 17 17 16 11 1 2 2 2 2 3 3 1 2 2 1 3 1 2 2 3 1 3 3 3 5 7 4 6 9 7 9 5 2 2 1 2 1 1 2 2 1 1 0 2 2 7 1 2 5 13 12 13 6 3 3 3 6 4 3 2 1 1 2 6 1 4 5 2 8 8 7 7 8 6 10 5 3 7 12
17 18 18 18 18 18 17 16 17 17 17 15 1 3 1 2 0 1 0 2 1 3 4 5 6 5 2 3 1 3 4 3 2 2 7 8 6 4 3 1 3 5 3 2 0 1 0 2 1 4 0 2 6 4 3 1 4 7 3 4 5 5 5 2 3 1 2 2 1 2 3 3 3 2 2 6 5 7 10 8 4 9 7 7 6 10 11
18 17 17 17 17 18 17 16 16 17 19 9 1 3 0 2 3 3 1 1 2 3 2 3 3 5 2 2 2 3 3 6 4 3 4 3 3 1 1 4 6 4 1 1 1 0 2 2 2 0 4 3 2 3 3 1 4 6 3 2 1 6 1 3 2 4 3 5 4 3 4 3 3 3 3 1 5 8 5 3 3 6 1 5 13 12 3
18 18 18 17 17 18 17 17 16 16 17 4 2 2 3 4 4 3 1 4 6 6 4 3 3 3 4 2 3 2 2 6 6 3 3 2 3 1 2 6 7 4 1 3 1 2 2 2 0 1 1 0 1 2 3 1 3 4 5 4 1 5 1 4 2 4 2 5 4 5 3 1 4 2 5 4 3 5 2 4 4 6 7 3 9 10 3
17 17 17 17 17 17 17 17 16 15 13 3 4 2 2 4 3 5 6 7 2 3 2 2 3 1 2 3 4 3 4 5 7 9 5 9 3 2 4 4 6 0 0 3 2 2 1 2 5 5 2 1 1 1 1 1 4 2 3 1 1 4 1 2 2 6 1 2 3 3 4 4 5 2 5 5 3 6 2 4 2 4 7 9 10 6 4
16 16 16 17 17 17 16 16 16 14 11 3 3 3 4 4 4 5 3 2 5 5 2 2 2 2 3 4 3 4 5 7 8 6 3 2 3 1 4 3 2 4 4 2 2 3 2 5 4 5 7 2 1 1 2 1 1 3 2 1 4 3 6 4 3 7 1 1 1 2 4 3 4 1 0 2 1 2 2 2 2 2 12 11 9 10 8
16 16 16 16 16 17 17 16 16 14 7 5 6 4 5 5 6 5 2 3 1 4 4 2 2 2 4 3 7 7 7 5 5 3 3 2 1 1 5 4 2 3 2 1 2 3 7 5 4 1 2 2 4 1 2 7 6 2 5 3 1 4 10 4 1 6 4 0 1 2 2 3 6 1 2 3 0 1 2 1 1 1 2 4 2 3 11
17 16 15 16 16 16 16 16 15 14 9 2 3 4 4 5 6 4 3 4 3 2 4 2 5 5 6 9 8 8 8 8 6 5 9 6 9 7 5 3 1 2 1 3 4 4 3 1 1 2 3 4 3 1 6 8 5 5 2 3 4 8 5 3 0 7 5 1 2 5 4 6 1 2 4 5 5 3 3 3 3 0 1 1 3 10 16
17 16 16 17 16 16 16 14 14 14 12 5 4 6 4 5 4 4 4 2 3 5 6 7 8 7 7 8 9 7 7 8 8 9 8 6 6 4 2 2 2 2 1 5 5 3 2 0 1 0 1 5 3 6 11 10 8 6 5 2 8 7 7 5 4 3 4 3 4 4 5 2 3 4 2 3 5 2 3 1 1 2 1 2 4 9 11
17 17 16 16 17 16 16 16 15 14 14 10 4 4 5 5 4 4 3 4 5 2 4 7 4 7 9 9 8 9 8 8 7 2 2 2 5 6 4 3 4 0 1 1 3 3 2 4 2 2 2 5 3 1 2 2 4 7 6 3 2 8 6 5 3 1 5 3 4 3 2 3 2 2 2 6 5 6 5 3 5 3 2 3 7 8 8
16 17 17 17 17 17 18 18 16 15 14 13 4 4 5 4 3 3 3 3 5 8 3 2 7 9 9 9 6 6 5 5 6 3 3 2 4 3 2 3 3 1 2 1 1 4 2 2 2 2 3 2 1 3 2 0 3 1 1 1 5 2 5 6 7 1 4 6 3 2 1 1 6 7 2 0 1 2 2 3 2 2 3 5 7 11 11
16 16 16 17 18 18 18 18 18 15 15 12 4 3 5 3 4 4 4 4 4 5 1 1 5 6 6 7 6 5 4 3 4 4 5 2 3 5 3 2 2 3 3 4 2 3 1 1 2 4 2 2 1 1 1 3 1 1 2 4 7 7 7 3 7 5 3 3 5 3 4 6 5 4 2 2 1 3 2 3 6 3 5 9 8 11 9
16 16 17 18 19 20 20 18 17 18 18 13 5 4 4 2 2 4 4 3 1 7 5 4 3 3 4 5 2 2 2 2 5 3 4 4 3 6 3 2 1 1 0 2 3 2 2 3 1 2 0 1 0 0 1 1 1 1 2 4 8 6 3 3 6 4 2 6 4 3 3 1 1 2 2 3 2 1 2 2 7 6 8 12 13 14 15
17 18 19 19 20 21 21 20 19 18 18 16 6 4 4 2 3 4 3 3 3 5 2 4 3 4 2 2 4 4 4 4 3 2 3 4 4 4 4 1 1 1 1 2 1 4 2 2 1 2 1 2 1 1 1 1 1 1 1 1 2 2 2 3 7 6 3 6 0 2 3 3 1 2 3 2 2 2 3 7 2 2 9 11 14 15 15
19 20 20 20 20 20 21 20 19 19 17 17 7 3 2 2 4 4 2 3 1 5 5 3 5 9 6 3 6 5 3 4 4 4 5 3 0 6 6 2 1 0 2 3 2 2 2 0 1 2 3 1 1 1 0 0 1 0 0 2 3 1 2 0 4 4 6 5 6 5 2 3 3 1 3 1 3 3 7 4 1 5 5 5 10 13 12
20 21 20 20 21 21 20 20 18 18 18 17 9 3 5 5 1 3 3 3 3 6 12 9 6 9 6 5 4 4 2 4 3 2 1 3 2 9 3 1 2 2 1 1 2 1 3 3 2 1 1 2 1 2 2 1 0 0 0 0 2 2 3 2 2 1 4 3 4 2 1 1 2 6 2 0 3 4 2 1 1 1 6 9 8 11 9
20 21 21 21 20 21 21 19 19 18 18 18 11 5 5 1 0 1 1 3 3 8 8 3 5 10 6 8 9 7 6 9 5 2 3 4 2 2 2 0 2 0 1 2 2 2 3 2 3 1 2 4 1 1 4 1 1 1 0 1 1 2 3 1 1 4 4 2 3 3 2 2 2 2 6 3 3 1 2 3 2 2 5 8 8 6 7
21 21 21 21 21 21 21 20 19 18 18 17 15 5 6 2 3 2 3 4 5 7 8 6 3 9 12 12 12 11 13 15 13 7 5 6 2 3 3 4 5 2 1 2 2 1 1 1 1 1 2 0 1 2 3 4 3 1 1 1 1 1 2 5 4 2 3 3 2 0 1 2 2 1 2 2 4 3 2 1 3 7 5 4 7 7 7
20 21 21 21 20 20 20 20 20 19 19 19 12 3 7 8 5 4 4 5 5 7 7 10 9 11 10 11 16 15 14 12 10 7 7 3 5 2 5 3 3 2 0 0 2 2 2 5 1 4 3 0 5 2 3 1 2 0 2 2 1 2 1 0 4 1 2 1 1 0 2 2 4 2 1 3 3 3 1 2 5 1 2 5 9 9 11
21 21 21 21 21 21 21 20 21 20 20 19 14 6 6 5 6 5 3 4 2 9 4 3 3 5 3 6 2 5 6 7 10 12 7 7 3 5 2 3 3 2 0 0 1 1 3 2 2 2 2 1 1 3 4 0 0 1 2 0 2 3 1 1 3 2 2 1 1 3 3 2 3 3 3 2 2 2 1 2 1 3 5 8 6 9 11
21 21 21 21 21 22 21 21 21 21 20 19 14 6 6 5 1 1 2 5 4 4 3 9 4 9 3 7 9 4 6 6 3 7 8 10 10 4 1 3 1 2 7 6 1 2 3 2 1 1 4 1 1 0 1 3 1 1 2 0 1 0 1 3 2 4 1 1 1 2 1 0 1 2 2 3 3 4 4 2 3 6 6 7 9 10 11
21 21 21 22 21 22 22 22 22 21 20 20 16 8 7 8 2 3 2 3 2 1 3 4 8 7 5 9 3 2 5 2 5 7 9 12 12 10 7 6 6 2 2 1 1 3 3 4 3 2 3 0 0 2 1 2 2 1 3 1 1 3 3 2 1 3 2 3 2 2 1 1 4 4 3 2 1 3 4 4 6 8 11 9 7 4 10
21 21 21 21 22 22 22 22 22 22 22 20 11 7 7 8 5 5 4 3 1 2 1 5 6 10 8 11 6 4 2 2 4 3 4 5 6 5 5 5 7 6 3 1 3 4 4 3 4 3 1 0 2 2 1 1 3 2 2 1 3 1 2 1 4 4 1 4 3 3 1 1 1 2 3 3 3 3 6 6 7 8 11 10 13 10 8
21 20 21 20 22 21 22 22 22 22 21 20 11 9 7 6 3 4 5 5 3 1 3 5 6 12 12 6 3 2 7 2 4 3 4 3 4 4 4 6 3 2 2 1 2 5 4 5 2 0 0 1 2 2 1 2 3 3 3 2 1 0 0 1 4 5 4 5 5 3 1 1 1 1 2 3 3 4 7 6 6 6 6 10 15 14 11
21 21 21 20 20 21 22 22 21 20 22 16 8 8 3 2 3 3 4 4 1 1 3 6 7 5 2 7 10 7 1 3 1 3 3 3 3 3 3 1 3 1 3 5 5 3 4 1 1 2 1 1 3 1 2 3 3 1 1 2 1 2 2 2 2 2 1 1 4 3 2 3 2 3 3 4 3 6 8 6 5 5 7 7 10 14 16
21 23 22 21 21 22 22 21 21 19 18 8 6 2 2 1 3 2 2 2 3 1 2 5 6 4 3 3 4 4 4 1 2 5 8 7 7 6 6 5 5 3 4 2 2 3 0 2 1 1 2 1 2 2 4 1 2 2 0 1 2 2 2 5 3 1 1 1 2 1 6 6 4 4 4 4 4 4 7 5 5 6 5 6 11 9 10
22 23 23 22 22 22 22 22 20 18 13 5 2 2 3 2 2 2 2 2 1 1 1 1 6 6 7 2 1 5 6 5 3 4 4 3 3 4 3 2 3 3 5 5 4 1 1 4 2 3 2 3 3 3 4 3 2 1 2 3 3 3 2 0 1 2 8 8 7 7 7 6 3 5 6 5 5 5 6 5 6 6 8 7 6 9 8
23 24 23 23 23 23 22 21 20 15 6 4 2 2 1 1 0 1 2 2 2 2 1 4 3 4 3 7 4 2 2 1 1 2 2 2 1 3 5 7 3 4 4 3 1 2 3 1 0 3 3 4 4 3 2 2 4 0 3 5 4 3 2 4 7 6 5 9 12 10 7 4 4 2 3 2 5 6 7 8 8 8 9 9 8 6 8
24 24 24 24 24 24 23 21 18 11 6 6 12 14 15 17 11 4 4 2 2 1 1 1 0 1 1 5 7 4 0 0 2 4 1 2 1 2 2 4 2 4 3 5 5 2 1 1 0 2 2 2 2 1 2 1 1 1 3 2 3 3 4 4 4 4 2 2 1 5 6 4 1 3 5 5 5 7 7 9 8 8 9 11 11 10 9
25 25 25 25 25 24 22 19 16 14 8 4 3 3 3 6 5 11 6 1 1 0 1 0 2 3 5 5 1 2 2 2 1 1 1 2 0 2 1 3 4 3 6 4 1 1 2 3 4 2 3 4 2 2 1 1 1 1 1 1 2 3 4 5 5 4 4 3 4 6 8 5 5 5 6 7 6 5 6 7 9 10 9 9 9 8 9
25 25 26 26 24 22 19 12 3 2 2 1 3 3 2 12 9 11 12 5 1 2 2 1 1 2 5 5 3 3 1 1 0 1 2 2 2 1 0 2 4 5 2 3 4 2 1 1 1 2 1 4 3 1 2 4 2 1 0 3 3 4 4 4 4 2 3 4 9 9 9 9 9 6 6 6 6 5 7 7 7 10 9 7 8 7 7
26 27 26 26 23 11 1 2 2 2 1 1 2 5 14 8 5 5 4 1 1 1 1 1 1 2 3 1 2 3 1 1 0 1 0 1 1 2 3 3 3 0 0 4 1 2 1 1 1 1 2 2 2 4 4 3 4 3 2 2 0 1 2 3 5 4 4 4 10 10 8 6 8 6 5 5 6 6 7 8 6 7 10 9 7 6 6
26 27 26 17 5 3 1 1 0 1 1 3 9 12 4 5 5 5 4 3 1 0 1 1 1 4 5 3 1 6 3 2 3 2 4 3 0 2 3 2 1 2 2 4 3 2 1 1 4 1 1 2 2 3 4 4 5 4 3 3 4 4 6 5 5 8 9 8 8 7 8 8 6 4 6 5 5 6 8 8 7 9 10 9 7 7 7
25 21 5 2 0 0 0 1 1 4 12 12 6 1 1 2 1 2 2 0 3 0 1 1 3 3 1 1 3 2 1 3 2 0 0 0 1 1 0 2 0 0 1 1 2 1 1 5 2 1 4 4 4 4 4 4 5 3 3 4 4 4 6 6 7 10 10 8 6 6 5 6 5 3 7 5 5 5 5 6 6 5 6 7 6 7 7
14 4 3 3 1 1 1 1 4 14 8 3 0 0 1 0 1 0 1 1 1 1 2 3 5 2 3 1 7 4 1 1 2 2 1 1 0 2 2 1 2 3 1 2 1 1 2 2 3 3 5 3 1 2 2 4 3 3 2 1 4 5 6 5 6 10 10 9 12 12 12 10 10 5 3 6 5 4 3 5 8 6 7 7 7 6 7
4 7 4 4 1 2 3 5 11 8 1 1 0 0 1 0 0 1 1 0 1 1 1 2 3 3 5 6 2 4 0 1 2 3 1 1 0 1 1 1 1 1 1 1 2 4 2 2 3 3 6 3 3 2 2 4 4 3 3 3 3 2 2 4 2 2 4 3 3 3 3 9 10 11 9 7 8 6 4 3 5 7 6 7 7 7 7
3 2 3 1 4 4 5 8 5 1 0 1 0 0 1 1 2 1 1 0 1 2 2 2 1 1 1 1 1 4 3 2 1 2 3 1 1 1 2 1 1 0 1 0 2 3 3 2 2 1 5 3 3 4 4 4 4 2 2 3 3 4 4 3 2 4 5 5 4 4 4 5 5 4 8 9 9 8 6 6 6 6 7 8 8 7 7
4 4 5 5 5 6 6 2 0 0 0 0 1 1 1 2 0 1 1 1 1 1 1 1 2 2 3 6 5 3 2 0 1 1 1 1 0 1 1 1 1 1 0 1 1 3 2 0 3 6 7 6 4 2 5 4 3 4 3 4 4 5 5 4 4 2 4 6 4 4 5 5 6 6 5 7 8 9 8 7 6 6 7 6 7 7 7
12 8 1 1 2 1 1 1 1 1 1 0 1 1 1 0 1 1 1 1 1 1 2 0 2 2 2 1 2 1 2 0 1 1 2 0 0 2 2 1 1 1 0 1 1 1 1 1 2 7 5 3 3 5 5 6 5 4 4 4 4 4 5 6 5 4 3 6 6 6 6 7 5 6 5 7 9 8 6 6 7 6 5 6 7 7 7
2 1 2 0 1 1 0 1 0 1 1 0 1 1 0 1 2 1 0 0 1 1 1 3 4 5 3 2 0 2 1 1 3 2 1 0 1 1 1 0 0 1 0 1 1 1 3 3 8 4 2 1 2 4 5 5 5 5 4 3 4 4 5 5 5 6 5 5 6 6 7 7 7 6 6 5 9 11 8 7 6 8 7 7 6 6 7
1 2 2 0 0 1 0 1 1 1 2 2 1 1 2 1 1 1 2 2 1 3 4 1 1 0 4 4 1 0 1 1 1 2 0 0 1 0 1 1 1 1 1 1 1 2 1 4 5 2 3 4 6 5 4 6 6 7 6 4 4 5 5 6 5 4 5 5 6 7 7 7 7 6 6 6 5 7 10 9 8 8 7 7 7 7 5
3 1 1 2 0 1 0 0 1 1 2 2 0 3 1 2 1 1 3 1 2 5 7 6 4 1 3 3 1 1 1 1 0 0 0 1 1 0 0 0 1 1 1 1 1 2 4 7 5 6 7 7 7 5 5 5 4 5 8 7 5 5 5 6 5 5 5 5 5 7 7 7 8 8 7 6 6 6 7 7 7 8 8 8 7 7 5
0 1 1 0 1 1 1 1 1 1 0 0 1 1 1 3 3 3 3 1 3 5 6 4 4 3 1 3 0 1 2 1 0 1 0 0 0 0 1 1 1 0 0 1 2 5 6 7 5 4 4 6 6 6 6 5 5 6 6 6 6 5 5 5 6 6 5 5 7 7 6 7 7 8 8 7 6 6 7 7 7 7 9 9 7 7 5
1 0 1 1 2 0 1 1 1 2 1 2 2 2 3 1 2 5 6 3 5 3 4 4 3 1 0 1 1 1 0 0 1 0 0 0 0 1 1 1 1 1 1 1 5 5 6 5 4 3 4 6 8 8 6 6 5 6 7 7 6 6 5 6 5 5 5 6 7 7 6 7 9 9 8 8 7 6 7 6 7 7 8 8 8 7 6
0 1 1 1 1 1 2 4 4 2 2 5 3 3 6 7 4 5 6 4 5 6 5 2 2 1 1 0 1 0 0 1 1 1 1 2 0 1 0 1 1 2 4 6 6 6 4 3 2 3 5 7 5 7 6 6 7 7 7 7 7 7 6 6 6 6 6 6 6 7 6 6 7 7 7 7 7 5 5 7 7 6 7 8 8 8 6
0 1 1 1 1 1 4 2 1 2 3 5 5 5 6 4 6 5 4 8 8 6 3 1 0 0 1 0 1 1 1 0 1 0 1 0 1 0 1 1 3 3 4 3 5 6 4 2 3 5 5 6 5 6 7 5 6 7 6 6 5 6 6 7 6 5 6 6 7 7 6 6 6 6 7 7 6 5 5 6 6 7 7 8 9 9 8
0 0 1 1 1 1 2 2 1 4 5 4 4 4 5 5 3 6 4 5 7 5 6 3 2 1 1 1 1 0 1 1 1 0 1 1 1 2 1 2 5 6 7 6 4 4 2 4 5 6 5 5 5 5 6 7 6 6 6 6 6 5 5 6 6 5 5 6 7 8 8 7 7 7 7 7 7 6 5 4 6 7 7 7 8 8 8
1 1 1 2 0 1 3 2 1 4 4 3 2 2 3 3 4 6 5 5 4 6 2 2 1 1 1 1 0 1 1 2 1 1 1 2 3 2 2 6 7 6 6 6 5 1 3 3 4 6 7 8 7 6 6 6 6 6 6 6 6 6 6 5 6 5 5 5 5 6 6 6 6 7 8 9 8 7 7 5 4 5 6 6 6 7 8
Wind_Direction
337 341 344 346 347 347 346 346 346 349 350 7 346 347 339 302 256 271 33 345 185 179 167 184 209 222 279 331 326 324 313 267 284 284 248 292 215 245 229 249 283 249 229 205 183 182 254 184 207 193 168 229 205 224 169 142 152 144 163 117 216 137 97 101 296 301 293 290 304 95 148 153 140 207 155 156 193 177 162 163 182 177 166 117 279 197 252
339 340 343 346 346 346 345 346 349 350 356 359 343 51 330 286 277 291 249 65 68 195 172 213 197 244 290 263 275 322 268 255 266 230 231 232 314 271 315 301 230 258 336 137 224 203 32 241 224 9 198 182 233 151 150 148 166 146 210 165 205 144 277 124 72 28 11 3 35 69 16 106 159 175 194 190 183 166 167 107 73 162 208 165 124 227 282
340 340 343 345 344 345 347 348 351 352 353 11 71 331 307 279 228 219 254 130 181 211 62 126 151 218 236 250 257 255 252 229 231 235 241 229 240 276 256 233 318 309 318 298 314 253 191 306 280 112 184 229 20 138 154 183 157 188 184 172 154 138 188 124 132 153 153 172 182 203 187 200 214 195 175 190 177 160 118 186 164 190 252 129 155 226 254
340 341 345 346 345 345 351 352 351 349 350 2 85 322 303 357 329 27 254 100 168 285 188 290 237 181 226 259 244 234 252 237 229 219 250 235 251 244 267 287 276 271 280 270 269 304 195 165 286 30 301 306 331 106 274 197 182 187 169 150 136 156 149 143 151 146 175 200 205 232 120 79 132 242 170 183 188 177 162 123 138 196 195 179 225 168 155
344 347 347 347 346 348 353 353 353 347 343 350 358 287 236 292 241 344 337 31 179 251 276 285 268 217 200 230 349 254 236 274 295 203 243 237 234 253 221 234 290 281 182 219 300 240 311 309 292 254 322 274 250 303 188 174 216 194 165 149 89 99 136 206 160 192 184 196 224 309 150 144 134 133 166 184 159 162 147 157 205 167 108 222 275 177 146
347 347 347 346 348 350 357 355 352 343 341 348 58 312 285 302 47 245 15 306 193 219 242 229 267 285 279 272 293 289 310 310 296 262 236 268 269 246 341 161 219 242 182 138 142 322 22 333 331 327 19 32 346 3 18 45 287 177 140 148 121 136 160 253 127 41 352 55 327 29 54 84 131 93 113 149 157 156 165 197 195 146 169 201 218 175 176
346 345 345 346 348 352 357 355 351 349 344 354 109 315 57 247 291 276 265 285 293 281 336 335 279 300 266 281 283 294 287 284 239 246 322 310 295 159 284 333 332 308 259 115 217 124 61 333 342 59 338 55 40 346 325 340 22 119 120 102 155 88 98 189 128 127 35 6 17 347 94 122 60 39 20 321 177 176 162 144 165 165 180 204 159 175 167
346 345 344 344 349 353 358 356 354 353 345 0 30 50 317 0 336 325 270 234 273 275 273 243 255 254 254 286 248 265 264 284 299 253 244 279 264 280 30 310 322 331 316 168 161 237 165 165 3 285 111 328 124 220 216 216 353 59 145 141 313 105 242 156 147 81 14 340 8 47 20 312 100 357 29 40 137 102 122 116 108 91 56 83 128 139 135
346 347 344 343 348 354 357 356 357 357 357 12 12 321 63 318 241 276 304 311 245 208 219 207 195 223 206 221 267 242 251 267 332 308 254 247 261 49 356 317 320 260 95 109 70 32 179 174 218 251 225 104 157 150 269 160 99 29 77 49 26 76 152 40 88 92 7 327 45 2 25 54 88 44 18 27 76 125 161 120 183 120 147 128 114 118 164
347 347 346 344 346 353 354 358 355 1 2 2 335 326 335 293 246 259 265 268 327 12 241 189 154 232 228 218 279 310 324 342 338 318 286 236 208 116 352 317 12 316 31 27 320 303 269 237 257 269 250 265 51 216 286 5 146 132 106 331 123 128 131 138 121 101 205 244 47 63 31 16 340 287 252 208 309 308 339 9 120 191 143 128 147 209 176
347 348 345 346 348 349 352 354 357 1 13 6 351 328 327 333 323 319 253 284 297 19 347 103 293 346 328 326 321 318 308 315 308 295 295 354 288 309 355 327 10 303 251 265 269 259 258 251 244 192 115 113 84 23 11 51 43 100 143 85 20 137 139 155 147 121 196 311 6 34 105 193 231 241 239 174 129 193 140 158 235 315 138 192 212 228 138
348 348 344 347 350 350 350 351 352 356 6 340 319 319 305 298 302 289 306 327 312 341 356 333 359 321 323 327 324 314 303 300 291 273 272 281 288 314 302 287 123 304 254 260 307 281 243 252 137 181 79 45 88 33 53 50 39 41 36 131 152 128 94 99 220 114 174 259 78 97 205 232 244 265 227 230 252 218 119 114 149 297 353 330 160 152 158
348 349 347 346 349 349 347 345 349 346 352 352 339 327 315 310 298 307 310 293 298 336 348 326 319 307 311 317 311 294 291 286 273 260 250 255 286 297 235 207 180 238 354 326 346 39 78 302 341 136 325 351 352 8 23 19 19 29 28 70 130 137 121 151 48 83 62 83 140 161 234 242 320 302 277 219 232 242 109 23 183 150 147 177 172 170 157
348 348 348 347 349 350 344 343 339 343 345 348 326 313 313 327 328 319 315 322 306 227 295 290 288 324 320 312 306 302 304 296 292 231 260 249 252 270 268 199 213 217 2 53 47 71 49 31 52 25 338 7 4 42 330 356 30 30 5 358 67 134 109 111 95 340 146 177 139 194 327 344 331 354 230 184 180 184 162 183 251 197 139 116 154 144 151
348 349 350 351 353 349 348 347 345 342 344 348 325 306 312 309 283 291 281 284 293 303 267 323 337 318 312 304 308 318 310 318 336 324 260 235 248 225 215 220 204 117 89 113 28 44 128 112 76 70 344 57 144 218 336 59 306 51 76 45 90 26 142 200 115 266 124 132 80 26 28 264 266 228 282 227 243 145 181 103 288 277 168 127 155 153 150
350 352 352 352 351 351 350 350 351 343 348 347 330 317 303 291 269 257 293 298 306 307 123 11 314 300 309 303 298 296 319 316 318 301 307 286 270 291 272 198 168 109 61 66 91 92 67 155 183 96 186 209 238 87 270 330 9 309 22 75 77 45 71 85 119 143 76 78 132 192 157 238 210 239 215 201 208 155 172 66 281 249 183 140 159 146 158
351 352 353 354 353 349 349 349 351 352 348 352 348 338 304 5 334 317 307 303 248 261 295 327 298 300 305 305 330 5 342 311 323 343 331 312 308 309 324 59 71 115 147 89 20 72 56 47 70 140 265 219 77 217 278 44 110 344 336 24 61 59 8 40 64 111 173 138 111 195 197 201 347 216 228 214 110 105 62 176 260 221 187 158 159 161 160
351 354 356 354 351 348 347 348 351 353 349 349 358 335 303 306 302 318 311 315 304 280 260 238 298 312 271 282 295 275 269 289 309 318 264 288 306 312 341 2 96 284 252 87 105 72 66 94 120 143 164 244 167 62 180 202 170 215 123 78 96 31 6 51 165 151 148 117 304 343 311 274 275 213 212 166 182 88 146 201 237 245 177 170 162 166 164
354 353 351 350 349 348 347 345 348 345 345 351 346 302 238 286 317 14 354 282 303 284 260 242 262 258 259 268 249 271 274 285 307 307 301 329 139 306 266 258 103 128 356 122 89 120 123 23 72 108 126 309 19 194 290 55 247 332 53 56 54 19 91 340 75 104 155 192 129 203 230 241 181 279 168 207 97 168 202 233 231 169 166 157 158 156 166
348 347 345 346 345 345 346 347 344 340 341 350 1 304 281 307 266 59 6 310 254 263 286 268 196 226 207 210 224 229 273 280 217 218 221 284 314 348 36 20 334 90 3 56 70 205 106 186 199 130 53 162 246 169 55 339 256 157 58 219 127 209 114 169 144 159 57 40 67 22 201 240 142 138 32 357 147 230 215 246 333 179 149 145 154 154 163
342 340 340 340 341 341 342 343 343 339 337 339 350 331 318 223 223 174 202 279 301 304 297 261 201 230 229 237 231 238 239 244 216 208 239 249 323 46 24 259 260 85 221 154 136 206 155 159 204 170 202 136 202 90 180 169 349 277 147 200 111 198 76 265 280 188 145 116 143 194 236 212 300 177 172 230 197 255 199 122 82 119 150 145 145 148 141
337 337 337 337 337 337 338 338 336 334 334 336 340 335 300 246 215 238 244 227 247 221 244 262 288 274 252 252 254 242 238 240 243 235 276 292 290 204 254 291 286 223 231 118 43 30 19 151 81 90 155 127 20 161 167 106 192 255 345 71 133 224 171 180 158 197 131 190 211 245 250 257 285 270 251 279 289 295 209 126 184 151 170 148 138 137 127
333 334 334 334 335 335 335 334 333 330 330 333 337 309 310 308 305 311 293 282 240 248 261 274 268 260 261 243 237 237 234 236 247 239 216 214 299 266 218 222 281 240 285 108 248 169 183 128 177 159 92 181 158 87 23 114 182 168 114 330 154 13 108 200 86 190 212 205 207 148 18 2 334 333 280 285 306 334 21 146 150 247 144 152 151 142 132
329 330 330 332 333 333 332 331 329 328 330 332 332 309 303 295 300 323 296 250 314 312 306 206 339 349 343 324 299 169 214 233 223 226 200 189 212 293 304 236 262 325 304 245 172 199 190 113 172 141 111 236 78 91 138 220 289 191 81 3 335 329 350 54 98 179 108 302 349 45 11 329 338 330 332 347 351 339 11 62 52 114 108 99 114 131 133
326 327 328 329 331 331 331 330 328 327 328 328 326 304 281 280 211 184 1 339 344 30 331 313 299 240 276 276 283 245 210 213 191 190 182 200 214 210 220 129 335 323 298 317 6 48 38 107 117 74 102 305 82 117 230 110 262 117 94 274 17 314 81 70 28 68 105 251 352 31 4 208 357 28 12 356 348 23 41 82 114 103 94 108 125 124 121
323 324 325 326 327 329 329 329 327 325 325 326 325 310 305 291 245 173 227 242 237 279 316 314 281 309 315 335 331 267 278 257 186 170 188 199 212 234 287 338 323 36 304 336 53 98 99 54 84 90 106 252 72 136 152 256 148 61 110 197 249 263 343 147 180 99 74 32 29 313 240 19 24 15 26 4 332 90 66 76 100 107 107 101 72 81 129
321 322 322 323 324 325 326 326 325 323 324 323 318 300 285 281 251 209 197 168 291 314 231 263 289 299 346 321 282 321 329 70 113 147 180 212 230 251 275 278 290 320 7 12 39 110 62 88 83 51 68 167 91 110 129 44 51 66 78 332 331 57 67 114 85 81 275 216 214 190 107 259 295 356 15 24 33 81 101 91 88 107 114 110 102 83 80
320 321 321 321 322 322 324 324 322 322 323 323 314 294 279 273 256 215 198 184 184 159 270 279 290 295 304 270 239 304 302 89 124 153 197 230 221 234 227 262 244 235 339 69 22 22 31 62 58 251 95 317 56 41 37 106 79 51 47 336 360 104 226 95 138 154 225 218 190 166 123 73 322 17 17 36 46 78 76 78 98 97 101 121 117 113 109
320 320 318 319 320 321 321 322 320 321 323 326 309 299 278 254 304 202 195 180 218 329 262 262 274 300 14 306 323 340 72 78 143 163 147 128 133 145 158 131 84 142 92 73 99 97 86 110 184 82 37 228 92 94 37 41 40 95 294 307 335 238 199 217 226 131 340 344 135 141 160 166 134 54 31 37 24 93 90 84 69 85 112 118 119 130 128
319 318 318 319 320 320 318 318 319 319 323 325 320 339 3 44 18 40 153 147 160 319 328 349 334 262 296 313 303 301 307 26 41 58 51 39 28 32 21 40 29 42 82 99 122 80 314 94 335 294 323 355 127 157 80 178 92 244 318 331 320 300 257 234 222 220 178 119 103 77 106 88 68 78 56 48 34 58 79 68 90 96 84 118 123 121 124
318 316 316 316 317 317 316 315 316 316 320 313 346 27 27 350 10 355 141 122 137 317 290 239 256 299 323 258 299 298 321 333 9 48 53 68 50 7 332 81 48 51 44 358 45 86 98 25 360 339 327 39 95 94 154 121 112 350 337 359 343 330 348 324 214 154 116 103 90 88 80 81 96 71 36 32 50 53 74 67 67 83 101 91 99 121 118
318 316 314 315 315 314 312 312 311 311 295 252 225 167 153 153 162 270 143 134 103 21 9 327 318 350 315 309 298 260 309 328 52 14 18 30 24 7 17 46 45 7 103 103 163 63 46 222 121 333 28 330 61 98 82 88 119 176 5 11 356 7 52 101 101 95 99 113 107 77 59 54 14 88 157 54 66 69 87 90 83 81 83 88 78 70 99
317 316 315 314 312 310 309 307 304 299 268 259 257 273 279 274 248 197 137 117 70 180 184 62 278 288 318 266 320 312 247 328 7 27 74 325 357 10 33 8 15 38 14 75 0 66 202 110 342 44 324 10 72 76 66 60 106 61 42 355 6 52 77 75 83 76 86 317 60 146 170 177 99 72 94 89 80 95 101 98 97 96 97 95 93 92 88
317 315 313 310 308 307 306 304 298 291 282 273 288 236 246 242 262 212 174 143 236 44 73 100 339 338 269 307 39 278 20 105 286 27 77 318 181 73 317 23 356 77 347 81 272 47 341 54 32 282 333 16 24 75 51 279 323 54 29 16 68 77 82 66 42 39 4 30 54 94 111 123 114 95 86 87 82 76 90 101 102 96 93 97 99 105 110
318 315 310 309 307 305 304 300 279 147 191 280 268 259 280 307 287 189 175 152 113 350 17 346 74 343 335 346 38 281 283 84 19 343 102 320 19 65 24 56 324 62 323 81 50 81 36 359 198 56 306 306 44 49 222 204 184 96 205 110 114 111 83 65 26 25 68 84 97 98 110 113 104 99 102 100 104 105 99 92 104 109 99 95 107 108 112
319 314 311 309 307 306 326 85 109 104 56 266 230 334 333 352 44 115 137 80 117 157 80 262 62 212 159 282 306 280 311 73 284 301 258 277 360 39 92 110 54 340 271 67 101 358 48 301 64 281 292 52 235 187 227 196 176 180 208 130 192 126 148 156 130 93 79 88 110 108 95 91 108 115 104 104 105 105 103 98 83 95 106 106 103 102 102
318 315 314 309 298 129 22 188 310 76 77 297 296 304 298 87 64 73 31 341 294 140 180 189 307 244 171 221 266 276 42 318 341 19 340 35 210 298 41 45 88 303 39 8 19 27 297 65 101 70 335 167 248 221 218 205 171 171 206 185 142 108 94 97 118 108 92 75 68 92 112 111 100 99 107 111 118 118 113 113 123 126 128 124 121 116 122
318 317 331 353 47 9 70 14 73 329 322 308 316 158 303 9 43 354 21 21 272 75 306 86 242 253 337 88 255 256 44 271 65 10 315 227 66 338 7 93 237 280 28 284 259 174 50 37 44 84 274 257 264 262 232 201 198 196 176 149 146 137 129 129 127 114 106 91 83 97 91 101 108 128 130 134 139 136 126 120 102 95 107 112 113 119 114
319 312 16 8 71 213 162 171 335 324 307 244 139 141 265 357 84 350 253 243 3 261 264 146 246 192 148 216 276 284 178 90 4 24 86 276 109 309 21 65 313 70 337 27 327 77 357 340 17 4 294 286 331 253 198 172 169 162 166 211 148 151 137 145 150 144 157 169 167 168 155 156 152 160 136 106 73 55 79 109 113 110 111 109 114 112 115
349 8 5 345 12 261 300 305 326 319 237 141 343 128 238 86 115 280 138 23 293 265 100 268 223 186 198 203 215 308 332 51 345 298 193 308 40 90 270 93 268 86 2 72 277 31 98 294 296 8 295 246 223 252 174 156 156 157 165 159 134 118 104 137 137 69 96 86 130 147 141 149 153 147 145 135 127 114 87 81 109 117 115 116 115 115 114
14 340 340 310 281 316 305 322 315 147 85 109 345 357 56 300 245 198 138 223 228 240 201 193 327 332 287 56 161 243 288 87 128 128 115 86 251 92 50 50 246 76 331 310 277 64 70 77 341 232 248 230 214 185 153 136 144 139 130 116 108 109 111 94 100 129 112 109 111 113 117 120 114 126 138 140 135 132 134 132 121 118 121 122 114 110 111
275 275 249 271 281 281 302 292 182 21 11 42 138 259 228 238 301 338 152 131 265 276 318 178 319 279 270 173 204 179 289 155 129 112 99 62 307 108 184 315 3 91 228 236 142 54 75 349 299 282 257 245 245 190 148 146 160 141 136 131 129 125 112 108 96 73 123 130 134 124 113 109 116 118 137 133 130 130 130 122 117 121 122 115 112 115 117
303 300 250 284 324 298 242 331 282 126 164 242 53 320 344 20 225 180 280 272 301 90 284 241 263 260 287 26 305 218 207 262 307 327 62 3 315 55 81 21 44 19 232 343 68 53 29 242 244 252 253 251 208 176 168 162 158 138 140 141 139 138 131 126 123 123 127 129 133 126 120 111 108 118 123 115 112 108 112 119 126 123 123 121 120 117 116
263 225 246 332 328 277 156 157 236 61 346 41 121 208 250 320 308 19 54 287 323 342 323 27 317 56 320 306 120 309 349 339 55 77 55 314 77 345 49 348 250 260 35 40 38 192 233 224 220 227 255 238 195 176 159 144 132 121 108 116 117 112 106 102 102 102 90 84 90 101 110 112 113 111 113 123 129 126 122 115 119 123 121 116 113 114 116
63 1 6 358 3 270 94 253 332 121 206 237 158 197 164 158 260 175 26 277 111 308 315 307 224 36 275 275 20 305 106 240 307 93 256 12 50 25 90 280 265 34 64 256 326 314 341 277 265 218 229 190 188 177 163 150 150 143 142 123 121 126 123 116 117 113 116 115 117 115 112 117 116 115 114 114 112 125 130 132 134 124 124 119 118 115 122
35 95 13 91 198 292 155 206 29 247 279 156 223 203 119 264 171 261 256 171 317 316 341 310 308 204 260 263 124 281 349 70 32 89 124 67 97 292 248 263 74 56 11 48 19 250 227 245 250 225 200 183 165 163 156 153 137 127 125 140 160 144 139 131 133 128 130 122 117 115 122 124 124 122 119 119 119 114 117 124 125 122 120 117 121 127 134
346 350 93 84 92 275 60 177 229 188 19 209 212 187 276 289 212 228 277 291 287 279 284 263 249 214 278 313 341 347 26 47 89 285 74 11 220 263 19 96 278 116 131 294 260 259 271 262 248 230 177 156 146 148 148 141 142 141 136 135 138 138 136 132 135 134 139 131 121 118 125 128 124 121 119 115 111 117 121 120 119 120 120 124 123 111 102
25 270 85 107 222 192 159 239 289 297 9 27 341 283 287 278 46 360 326 290 262 303 311 339 1 348 345 292 91 157 291 359 102 290 132 169 28 43 9 33 309 258 190 194 240 226 243 258 254 203 166 153 148 144 144 142 143 137 138 139 138 136 137 133 133 136 134 134 133 132 132 130 131 134 135 131 127 128 127 125 124 118 117 118 116 115 118
205 342 15 219 212 177 242 280 2 346 355 355 307 2 10 21 4 318 311 315 333 325 291 238 216 119 270 241 80 5 305 353 81 265 7 30 73 231 147 245 338 335 269 185 233 245 231 262 259 150 141 140 148 143 145 146 143 142 143 146 152 151 143 138 141 146 138 131 130 134 137 135 128 128 127 127 131 142 138 130 126 127 134 130 126 125 128
96 333 31 44 359 314 268 282 42 323 343 6 21 3 346 4 349 321 328 342 329 325 346 25 346 94 259 137 322 13 259 286 141 48 62 328 200 181 75 326 232 203 264 241 229 253 255 235 150 136 146 141 141 141 138 139 138 142 144 142 140 138 140 138 138 144 142 137 137 136 133 122 120 125 135 144 148 138 130 131 132 136 136 133 138 140 141
299 108 242 204 171 244 19 11 311 309 330 355 360 337 4 332 326 318 339 333 323 0 41 42 308 33 326 31 58 47 248 200 66 102 162 212 191 104 171 217 245 215 236 246 242 260 202 182 158 147 143 145 144 146 140 140 142 142 140 141 143 133 132 136 138 138 133 128 129 128 134 139 138 128 125 119 118 118 119 129 141 140 141 144 144 142 144
343 342 315 298 266 213 214 241 219 217 238 271 301 269 336 309 308 303 314 343 355 56 357 301 51 348 50 92 214 246 299 40 38 16 9 276 158 142 217 204 237 237 240 289 296 215 177 172 175 164 155 151 148 142 136 131 130 133 135 140 136 130 130 132 136 134 127 125 135 133 129 126 122 120 122 119 119 121 125 136 139 135 137 143 149 154 150